Content
SEND FEEDBACK

Daily
Averages
Monthly
Summary
Turkmenistan

ASHGABAT, TURKMENISTAN


Home > Asia > Turkmenistan
Elevation: 775 feet     Latitude: 37 58N     Longitude: 058 20E

WEATHER
 
SELECT A DAY
Number of Records: 177,170;   Date Range: 3/15/97 - 7/23/14
 
SHARE

PRINT THIS DATA

[ ← Previous Day ]
WEATHER ALMANAC - OCTOBER 18, 2013
[ Next Day → ]
[ °C ]   °F
Weather ElementAverageHighLow
Temperature71.3 °F89.6 °F (3:00 pm)54 °F (8:00 am)
Dewpoint35.2 °F44 °F (2:00 am)26.6 °F (4:00 pm)
Humidity28.7 %51 % (2:00 am)7 % (5:00 pm)
Barometer29.99 in30.04 in (10:00 am)29.95 in (4:00 pm)
Wind Speed6.1 mph11.2 mph (1:00 pm)
Weather ElementAverage
Visibility6 mi
Wind DirectionESE (112.9 °)

Weather ElementTotal
Precipitation---
Cooling Degree Days6.8 (Base 65)
Growing Degree Days21.8 (Base 50)
Averaged from 38 records on October 18, 2013
WEATHER CONDITIONS BREAKOUT
WIND DIRECTION BREAKOUT
WEATHER BY HOUR - OCTOBER 18, 2013
[ °C ]   °F
Local TimeTemperatureDewpointHumidityBarometerVisibilityWind DirectionWind SpeedGust SpeedPrecipitationEventsConditions
1:00 AM60.8 °F37.4 °F42 %30.01 in6.2 miVariable2.2 mphClear
2:00 AM58.0 °F44.0 °F48 %30.03 in6.0 miSE (140°)4.5 mph
2:00 AM59.0 °F41.0 °F51 %30.01 in6.2 miVariable2.2 mphClear
3:00 AM60.8 °F39.2 °F45 %29.98 in6.2 miSSW (200°)4.5 mphClear
4:00 AM59.0 °F39.2 °F48 %29.98 in6.2 miSouth (180°)4.5 mphClear
5:00 AM57.0 °F38.0 °F38 %30.01 in6.0 miSW (220°)4.5 mph
5:00 AM57.2 °F39.2 °F51 %29.98 in6.2 miSW (220°)4.5 mphClear
6:00 AM57.2 °F37.4 °F48 %29.98 in6.2 miVariable2.2 mphClear
6:30 AM55.4 °F37.4 °F51 %29.98 in6.2 miSouth (190°)4.5 mphClear
7:00 AM59.0 °F35.6 °F42 %29.98 in6.2 miSSW (200°)4.5 mphClear
7:30 AM55.4 °F37.4 °F51 %29.98 in6.2 miSouth (190°)6.7 mphClear
8:00 AM54.0 °F40.0 °F49 %30.03 in6.0 miSSW (210°)4.5 mph
8:00 AM57.2 °F37.4 °F48 %30.01 in6.2 miSSW (210°)4.5 mphClear
9:00 AM68.0 °F41.0 °F37 %30.01 in5.0 miVariable2.2 mphClear
9:30 AM73.4 °F41.0 °F31 %30.01 in5.6 miCalmPartly Cloudy
10:00 AM75.2 °F39.2 °F27 %30.04 in5.0 miEast (90°)6.7 mphPartly Cloudy
10:30 AM78.8 °F35.6 °F21 %30.04 in6.2 miEast (100°)4.5 mphPartly Cloudy
11:00 AM79.0 °F37.0 °F13 %30.00 in6.0 miEast (90°)8.9 mphClear
11:00 AM80.6 °F35.6 °F20 %30.01 in6.2 miEast (90°)8.9 mphPartly Cloudy
12:00 PM84.2 °F33.8 °F16 %30.01 in6.2 miEast (80°)6.7 mphScattered Clouds
1:00 PM86.0 °F30.2 °F13 %29.98 in6.2 miEast (90°)11.2 mphMostly Cloudy
2:00 PM87.0 °F34.0 °F8 %29.96 in6.0 miEast (90°)11.2 mphScattered Clouds
2:00 PM87.8 °F28.4 °F12 %29.98 in6.2 miEast (90°)11.2 mphMostly Cloudy
3:00 PM89.6 °F30.2 °F12 %29.98 in6.2 miESE (120°)8.9 mphMostly Cloudy
4:00 PM89.6 °F26.6 °F10 %29.95 in6.2 miSE (130°)11.2 mphScattered Clouds
5:00 PM87.8 °F28.4 °F12 %29.95 in6.2 miEast (100°)8.9 mphScattered Clouds
5:00 PM88.0 °F32.0 °F7 %29.95 in6.0 miEast (90°)8.9 mphScattered Clouds
6:00 PM84.2 °F32.0 °F15 %29.95 in6.2 miEast (100°)8.9 mphMostly Cloudy
7:00 PM78.8 °F33.8 °F20 %29.98 in6.2 miESE (120°)8.9 mphMostly Cloudy
8:00 PM75.2 °F32.0 °F21 %29.98 in6.2 miSE (140°)6.7 mphMostly Cloudy
8:00 PM78.0 °F35.0 °F12 %29.96 in6.0 miSE (140°)8.9 mphScattered Clouds
8:30 PM75.2 °F30.2 °F19 %29.98 in6.2 miSE (130°)8.9 mphMostly Cloudy
9:00 PM73.4 °F33.8 °F23 %29.98 in6.2 miESE (110°)8.9 mphMostly Cloudy
9:30 PM69.8 °F32.0 °F25 %29.98 in6.2 miVariable2.2 mphMostly Cloudy
10:00 PM69.8 °F32.0 °F25 %29.98 in5.6 miSW (220°)4.5 mphScattered Clouds
10:30 PM69.8 °F32.0 °F25 %29.98 in6.2 miNNE (20°)4.5 mphScattered Clouds
11:00 PM65.0 °F36.0 °F23 %29.98 in6.0 miENE (60°)2.2 mphClear
11:00 PM66.2 °F33.8 °F30 %29.98 in5.6 miSE (130°)4.5 mphPartly Cloudy
Hourly data recorded from UTAA, located miles away from Ashgabat, Turkmenistan







STORIES FROM OUR PARTNERS